Inscriptos

10000 Electronico
Fecha Serie Viento Presión Humedad Temperatura
28-10-2017 Final_A
Andarivel Nombre Dia Mes Año Equipo Mejor Marca
Sanguinetti Ulises Pedro 19 9 1980 EMA3A - 30.25.99
Michia Marcelo Alejandro 23 6 1991 JMCOR FMARP 31.07.99
Micieli Leonardo Ezequiel 14 6 1988 FCMAX - 31.37.42
Luero Matias 12 3 1988 JMCOR FMARP 32.17.99
Tersano Carlos Emiliano 29 11 1988 MALGO FMARP 32.18.99
Vergara Lionel 21 7 1986 JMCOR FMARP 32.23.99
Monin Alejandro Ezequiel 10 9 1987 JMCOR FMARP 32.23.99
Cardozo Eduardo 7 9 1983 L�FA 32.38.99
Aristei Ignacio 15 12 1975 FCMAX - 33.00.99
Brian Motta 8 10 1988 L�FA 33.00.99
Sanchez Sanudo Fernando 20 12 1986 FCMAX - 33.00.99
Correa Daniel 10 4 1981 FCMAX - 33.00.99
Toledo Juan Ignacio 17 5 1987 ATERU ARDA 33.10.99
Vidal Carlos 19 11 1986 AAAPC - 33.14.00
Granlund Agustin Ivan 23 1 1994 CCCAM - 33.20.99
Fernandez Marcelo Adrian 15 4 1995 FCMAX 33.40.99
Irusta Sebastian Elias 10 2 1985 FCMAX - 33.40.99
Leguizamon Diego 17 7 1988 ATERU ARDA 34.40.99
Calles Ezequiel Eduardo 4 9 1980 L�FA 35.00.99
Ansio Juan 9 4 1989 ATERU ARDA 35.00.99
Winter Aaron 30 11 1991 ATERU ARDA 35.10.99
Condori Franco Grabriel 20 6 1993 LÑFA - 35.30.99
Galvan Sebastian 5 11 1986 ATERU ARDA 35.50.99
Rossi Rodolfo Jose Carlos 12 8 1975 EBFAM - 36.00.00
Fernandez Sebastian 23 8 1972 DCFAM 36.20.99
Cena Nicolas 1 2 1978 LÑFA - 36.30.99
Olguin Vicente 14 5 1982 ATERU ARDA 37.00.99
Frias Leonardo Marcelo Jose 4 3 1971 ALFLA AJUN 37.00.99
Garay Igancio Martin 3 12 1981 CABPB 37.45.99
Morena Leandro Ricardo 14 5 1972 EBFAM - 38.30.00
Alva Grimaldi Luciano 10 9 1972 EBFAM - 38.30.00
Talento Guillermo Ezequiel 27 12 1982 CACHI 38.45.99
Valerio Carlos 7 6 1974 LÑFA - 38.99.99
Olano Maximo 13 2 1975 CABPB - 40.30.99
Rodriguez Victor 16 7 1967 DCFAM - 41.00.99
Campo Carlos Alberto 1 12 1946 CABPB - 41.50.99